Location: Keewatin
(47.4004°N, 93.0827°W)
Time: 02:11:02
(UTC+00:00)

Envisat - Pass Details

Date: 12 December 2019
Orbit: 764 x 766 km, 98.1° (Epoch: 23 January)

Event Time Altitude Azimuth Distance (km) Brightness Sun altitude
Rises 01:20:16 0° 207° (SSW) 3,222 6.6 -29.2°
Reaches altitude 10° 01:23:13 10° 225° (SW) 2,301 6.0 -29.7°
Maximum altitude 01:26:47 19° 270° (W) 1,764 5.6 -30.3°
Drops below altitude 10° 01:30:22 10° 315° (NW) 2,314 6.0 -30.9°
Sets 01:33:22 0° 333° (NNW) 3,245 6.6 -31.4°
